This is the latest recevied weather packets stored in our database for station/object K2CAT. If no packets are shown the sender has not sent any weather packets the latest 10 day(s).
| Time | Temp. | Humidity | Pressure | Rain* | Wind** | Luminosity | Snow |
|---|---|---|---|---|---|---|---|
| 1777580317 | 13.89° C | 87% | 1006.6 hPa | 0 mm | - | 112 W/m² | - |
| 1777580014 | 13.33° C | 85% | 1006.7 hPa | 0 mm | - | 152 W/m² | - |
| 1777579709 | 13.89° C | 87% | 1006.6 hPa | 0 mm | - | 126 W/m² | - |
| 1777579408 | 13.89° C | 87% | 1006.5 hPa | 0 mm | - | 116 W/m² | - |
| 1777579104 | 13.33° C | 87% | 1006.6 hPa | 0 mm | - | 87 W/m² | - |
| 1777578803 | 13.89° C | 88% | 1006.6 hPa | 0 mm | - | 60 W/m² | - |
| 1777578500 | 13.89° C | 88% | 1006.5 hPa | 0 mm | - | 88 W/m² | - |
| 1777578200 | 13.89° C | 89% | 1006.4 hPa | 0 mm | - | 122 W/m² | - |
| 1777577895 | 13.33° C | 88% | 1006.4 hPa | 0 mm | - | 95 W/m² | - |
| 1777577591 | 13.89° C | 89% | 1006.4 hPa | 0 mm | - | 133 W/m² | - |
| 1777577289 | 13.33° C | 88% | 1006.3 hPa | 1.27 mm | - | 161 W/m² | - |
| 1777576985 | 13.33° C | 89% | 1006.4 hPa | 1.27 mm | - | 123 W/m² | - |
| 1777576681 | 13.33° C | 90% | 1006.6 hPa | 0 mm | - | 99 W/m² | - |
| 1777576381 | 13.33° C | 91% | 1006.7 hPa | 0 mm | - | 108 W/m² | - |
| 1777576077 | 13.33° C | 91% | 1006.7 hPa | 0 mm | - | 113 W/m² | - |
| 1777575773 | 13.33° C | 91% | 1006.6 hPa | 0 mm | - | 132 W/m² | - |
| 1777575470 | 13.33° C | 90% | 1006.6 hPa | 0 mm | - | 134 W/m² | - |
| 1777575165 | 13.89° C | 87% | 1006.5 hPa | 0 mm | - | 127 W/m² | - |
| 1777574861 | 13.89° C | 86% | 1006.6 hPa | 0 mm | - | 114 W/m² | - |
| 1777574559 | 13.89° C | 83% | 1006.6 hPa | 0 mm | - | 105 W/m² | - |
| 1777574255 | 13.89° C | 84% | 1006.5 hPa | 0 mm | - | 99 W/m² | - |
| 1777573950 | 13.89° C | 84% | 1006.6 hPa | 0 mm | - | 84 W/m² | - |
| 1777573645 | 13.89° C | 85% | 1006.6 hPa | 0 mm | - | 60 W/m² | - |
| 1777573342 | 13.89° C | 86% | 1006.6 hPa | 0 mm | - | 61 W/m² | - |
| 1777573038 | 13.33° C | 85% | 1006.5 hPa | 0 mm | - | 86 W/m² | - |
* Rain latest hour (hover to see other rain measurements)
** Current wind speed in m/s (hover to see current wind gust speed)